Theta_e
329 329 330 331 333 333 332 331 330 331 332 332 330 331 331 331 331 331 334 335 337 337 338 338 337 334 335 335 334 334 334 334 334 334 335 334 334 333 334 334 334 334 335 335 335 334 334 334 334 336 337 338 337 336 335 335 335 334 332 332 330 328 329 331 331 333 329 328 329 328 329 331 333 331 332 334 332 330 330 329 329 330 332 334 336
326 328 329 330 331 332 331 330 329 329 330 332 332 331 331 333 333 335 332 335 339 338 338 338 338 337 335 333 334 333 334 334 333 333 333 333 334 334 334 334 334 334 335 335 335 334 333 334 335 336 337 337 335 334 334 333 333 332 331 329 329 329 327 329 329 330 327 325 323 325 328 329 330 330 330 330 329 328 327 327 328 330 331 332 333
326 328 329 329 331 331 331 330 329 331 331 331 332 331 331 333 334 334 333 335 337 338 338 337 336 335 336 333 333 328 327 331 331 330 330 329 332 333 334 335 335 334 335 334 334 334 334 334 333 334 336 334 333 333 333 333 334 334 334 330 327 329 328 330 330 331 328 327 328 324 321 320 325 329 330 329 328 328 328 327 328 327 326 328 330
324 326 327 329 331 331 330 329 329 330 329 329 329 330 331 332 333 332 333 335 335 336 336 336 334 331 331 331 330 331 328 327 328 327 328 327 328 330 334 334 334 335 335 334 335 334 335 334 334 335 335 335 334 332 331 331 332 333 333 332 331 325 325 326 331 331 331 328 320 321 321 321 315 319 324 326 329 328 326 325 326 325 323 322 324
325 325 327 328 328 330 329 330 331 329 329 329 328 329 330 331 331 332 332 332 333 333 334 332 329 328 327 327 328 327 328 328 327 325 328 329 328 330 330 334 335 335 335 335 335 334 334 334 334 334 333 333 333 332 331 330 331 333 333 331 329 329 327 328 328 331 331 330 326 320 316 316 317 319 322 321 326 321 319 319 321 321 321 322 321
327 325 326 327 328 330 331 330 328 328 329 330 331 331 331 330 330 331 331 330 330 332 332 331 329 328 327 327 326 327 327 327 326 324 324 326 324 326 326 328 331 334 335 335 334 333 333 334 334 333 333 333 333 333 332 331 330 331 332 332 330 332 330 327 326 328 331 329 331 332 328 320 318 322 320 313 322 323 319 315 316 317 319 318 318
326 327 326 326 328 328 330 330 328 328 330 332 332 332 331 330 329 330 329 328 329 330 331 331 330 329 330 331 330 328 326 324 324 324 325 322 324 325 324 327 326 332 334 335 335 334 334 333 333 334 334 333 333 332 331 331 331 332 333 333 332 331 331 327 326 325 327 328 328 328 327 329 327 321 316 317 313 317 316 315 313 314 315 315 314
324 324 325 327 327 327 328 330 329 329 331 331 331 331 330 329 328 328 328 327 327 330 330 332 330 330 330 329 328 327 326 322 324 323 324 322 322 322 324 324 325 328 331 334 337 335 334 333 334 333 332 332 332 331 331 331 332 333 334 334 332 331 330 329 326 325 326 324 326 326 326 327 328 327 324 319 317 311 308 311 314 316 316 315 315
325 324 325 326 326 327 328 329 330 331 331 330 330 330 330 329 328 328 327 326 326 329 330 330 331 330 330 328 324 324 324 323 323 323 321 322 321 321 323 323 325 326 328 332 334 335 335 334 333 332 332 333 332 331 332 332 331 331 332 331 332 331 332 332 329 327 327 325 324 326 327 326 326 327 327 324 315 309 307 308 308 313 313 314 314
324 325 325 326 327 327 329 329 329 327 328 328 329 329 328 327 326 326 326 325 326 328 329 329 329 329 328 328 325 323 323 323 323 321 320 322 321 321 322 323 324 326 326 327 329 331 333 334 333 332 333 332 331 332 332 331 332 332 332 333 333 332 332 331 330 329 330 329 330 326 322 322 323 320 316 313 313 312 307 307 311 310 307 310 315
322 322 324 324 325 325 325 325 323 321 322 322 323 324 325 326 325 325 326 324 325 327 327 327 328 329 328 327 327 324 325 324 322 321 319 321 320 321 322 322 323 324 325 326 326 327 329 330 331 331 332 331 329 330 331 330 330 330 330 331 331 331 331 330 330 330 330 329 327 323 320 319 316 314 313 312 309 308 309 309 311 311 309 308 311
321 320 320 321 321 322 323 322 321 319 319 319 321 322 321 321 321 323 324 324 323 326 326 326 326 327 328 327 326 326 325 325 324 322 321 320 321 320 320 321 322 323 325 325 325 326 327 327 327 328 326 327 326 327 326 326 326 326 327 328 328 328 329 329 328 326 326 325 323 321 319 318 316 313 311 311 309 309 310 310 309 309 309 308 309
319 319 319 320 320 320 321 321 322 321 320 319 320 321 321 320 320 319 319 323 323 324 325 326 326 326 326 326 326 326 326 326 325 323 321 320 320 320 321 321 321 323 323 324 323 324 325 327 327 326 325 324 323 323 323 322 324 324 324 324 325 326 327 327 323 322 321 317 316 319 316 315 314 315 314 312 314 313 312 309 309 311 309 308 309
318 317 317 317 318 318 321 321 321 321 322 322 321 321 321 320 319 318 319 320 321 323 324 324 324 324 325 325 325 325 325 325 324 323 321 321 321 321 322 322 322 324 324 323 321 321 323 323 324 323 322 322 322 322 321 320 322 320 322 322 321 321 321 321 319 320 320 320 320 316 316 314 314 316 314 314 312 311 309 309 309 311 310 305 307
315 315 315 317 319 321 321 321 322 322 324 325 324 322 321 320 319 318 318 319 319 320 321 320 320 321 322 322 323 324 323 322 322 323 321 319 319 320 321 322 323 323 322 321 320 321 322 322 322 321 320 321 320 320 320 320 321 319 319 320 318 318 319 319 318 318 317 316 319 316 315 315 314 314 314 313 313 313 312 311 310 307 307 308 305
315 315 317 319 322 323 323 320 319 320 321 322 325 324 323 322 320 319 318 317 318 319 319 320 321 322 322 321 321 322 321 321 320 319 318 319 317 319 320 321 321 320 320 320 319 320 321 321 320 320 319 319 319 319 319 319 320 319 317 318 315 316 319 318 317 318 317 318 318 317 314 312 315 313 314 314 313 314 313 313 314 310 307 303 306
316 317 318 320 321 322 322 322 319 319 319 321 325 324 324 322 319 318 317 317 319 319 321 322 324 323 324 320 321 323 322 320 319 319 319 318 317 318 319 319 319 320 320 320 319 319 320 320 320 318 318 318 318 318 317 318 319 319 318 317 316 316 317 316 317 316 316 316 316 317 314 313 314 316 314 315 315 316 315 315 312 311 310 306 303
317 318 320 322 322 320 320 318 317 317 316 318 322 323 323 323 321 318 315 316 317 319 321 324 324 323 322 322 322 322 322 320 321 319 317 316 315 316 318 318 319 320 320 320 320 319 320 318 319 318 318 318 318 317 316 316 318 316 316 314 314 315 314 314 315 315 315 316 316 315 315 313 316 316 314 317 316 316 315 314 312 313 312 308 307
312 313 314 315 317 318 317 315 315 316 316 317 320 322 323 323 322 319 317 318 318 320 322 323 323 322 323 322 322 321 318 317 318 320 318 316 315 316 318 318 318 319 320 319 319 319 319 318 319 318 318 318 318 317 316 316 317 316 316 314 314 315 313 313 314 315 316 316 316 315 316 314 317 317 317 316 316 316 314 314 313 313 312 312 310
312 313 314 314 315 316 317 317 315 315 316 316 319 322 323 322 320 319 319 319 320 320 322 324 323 323 322 322 323 322 320 321 320 319 316 316 315 315 316 317 319 319 321 320 319 318 319 318 318 318 318 318 318 318 317 316 317 317 316 314 315 315 313 313 312 314 312 315 314 313 314 313 314 314 314 316 314 315 316 313 313 312 311 312 310
311 312 314 314 315 316 316 317 316 317 317 318 319 321 321 321 320 319 319 319 320 322 324 324 323 322 323 323 322 321 322 322 321 319 318 318 317 315 316 318 318 319 320 319 318 318 318 318 317 317 317 318 318 318 318 317 316 316 316 316 315 314 313 313 314 314 313 314 312 311 312 312 315 313 313 314 313 313 314 314 313 311 310 311 310
311 311 312 314 316 317 317 318 318 319 318 318 319 320 320 321 320 320 320 319 320 321 323 323 322 323 323 323 323 323 323 322 320 319 319 319 318 317 316 316 317 319 320 318 318 319 318 317 317 316 316 316 316 316 317 317 315 317 317 317 317 314 313 313 315 312 314 314 315 311 310 311 313 311 313 309 310 310 309 309 309 310 308 308 311
307 307 307 308 308 310 311 313 315 316 318 319 320 320 320 320 320 320 320 320 320 320 322 323 322 322 322 323 324 323 322 322 320 319 319 319 319 318 317 316 317 317 318 320 319 318 317 317 316 316 315 316 316 316 317 316 316 316 316 318 318 316 315 314 314 313 311 313 313 313 312 313 313 313 313 312 312 310 309 308 309 309 308 306 305
304 304 304 304 305 307 306 306 308 312 315 317 318 319 320 320 320 320 321 321 320 321 321 322 322 322 323 323 323 323 322 321 319 319 319 320 319 319 318 317 317 317 316 319 318 317 316 316 316 315 315 315 316 317 316 315 315 315 315 315 316 317 316 316 315 313 312 313 313 312 313 314 313 312 312 312 312 312 311 309 310 309 308 305 306
302 302 302 302 302 301 302 304 305 307 310 314 317 318 319 320 320 320 320 321 321 321 321 320 321 322 322 322 322 322 321 321 321 321 320 319 320 319 319 318 317 317 317 318 318 317 317 316 316 315 315 315 316 316 316 316 316 316 315 315 315 315 317 316 316 316 314 315 315 314 313 313 314 312 313 311 311 312 309 310 309 307 306 305 306
301 301 301 301 300 300 300 301 302 304 308 311 313 315 317 319 319 320 319 321 321 321 320 321 321 320 320 321 322 321 321 322 322 321 320 320 321 321 320 319 317 317 317 317 317 317 316 316 317 317 317 317 318 319 318 318 318 319 318 318 317 316 316 315 315 315 315 316 317 315 315 315 314 314 313 313 313 312 310 309 307 305 304 305 306
299 300 301 301 301 301 301 301 301 302 303 306 310 313 314 316 318 318 319 320 321 321 320 320 320 320 319 320 320 321 321 322 322 322 321 319 319 321 320 319 319 318 318 317 317 318 319 318 319 319 319 321 320 320 321 322 321 320 320 319 319 318 317 317 316 315 315 316 316 315 317 316 315 315 315 315 314 314 312 310 309 308 304 305 305
299 299 299 299 300 301 301 302 302 302 302 303 304 307 312 314 314 315 317 318 319 320 320 319 319 319 319 320 320 321 321 321 322 323 322 320 320 320 319 320 319 319 319 318 318 319 322 320 320 320 321 321 321 321 322 320 320 320 320 320 320 320 319 319 320 318 317 316 316 316 316 316 315 316 316 316 316 314 312 311 311 308 307 306 306
298 298 299 299 299 300 301 301 301 302 302 302 302 302 304 310 313 315 316 317 317 318 319 319 319 319 320 320 321 321 321 321 321 322 321 320 320 320 320 319 320 321 321 320 320 319 319 319 320 321 320 321 320 320 321 322 319 317 318 318 319 320 320 320 320 320 320 319 318 317 317 317 316 313 307 308 310 310 313 311 310 308 307 306 306
295 297 298 299 299 300 300 301 302 301 301 302 302 302 301 302 305 311 314 315 317 317 317 318 318 319 320 320 320 321 321 321 321 321 321 321 320 319 319 319 319 320 320 320 319 319 319 319 319 320 321 320 321 320 314 308 309 314 314 315 317 319 319 320 320 319 320 321 320 319 319 312 307 305 303 299 298 299 303 310 311 308 305 306 306
293 295 296 297 298 299 300 300 300 301 301 302 302 302 303 303 302 304 306 310 315 316 317 317 318 319 319 319 319 320 320 320 320 321 321 320 319 320 319 319 320 319 319 317 318 318 318 318 319 319 319 318 319 316 305 301 300 302 314 318 318 319 320 320 319 319 319 320 321 320 320 315 310 307 307 298 297 296 296 296 299 301 303 307 307
293 294 294 295 295 297 298 298 299 300 300 300 302 302 302 302 303 302 303 306 312 315 315 316 316 318 318 318 318 319 319 319 319 319 320 319 319 319 319 320 320 319 317 317 317 316 316 317 318 318 320 320 318 308 300 300 299 297 302 317 319 318 318 319 319 319 319 319 319 320 320 319 318 316 316 314 304 296 295 294 294 294 294 291 293
292 293 293 294 294 295 297 298 298 298 298 299 300 301 301 302 303 304 304 304 304 306 311 315 316 317 317 318 318 318 318 318 318 319 319 320 319 318 318 318 318 320 319 317 317 318 318 318 318 318 319 319 319 301 298 298 298 297 296 304 317 317 317 318 318 318 318 317 317 317 317 318 316 308 308 312 313 309 295 293 293 293 292 291 289
293 293 293 294 295 296 297 298 298 298 299 300 301 301 302 303 304 305 305 304 303 304 306 307 310 313 316 316 316 317 317 317 317 317 318 318 318 318 318 319 319 319 318 318 319 318 319 319 319 319 319 319 320 300 297 297 297 295 294 298 313 314 315 315 314 314 314 315 315 315 314 315 314 313 313 312 311 310 304 301 302 303 303 300 294
293 293 293 294 295 296 297 297 296 298 299 299 299 300 302 301 302 303 304 305 304 304 305 306 308 310 311 314 315 315 316 316 316 316 317 317 317 317 318 318 318 318 318 317 317 318 319 319 319 319 319 318 318 297 296 296 295 294 292 298 315 313 312 312 310 309 309 310 311 312 312 312 310 309 307 306 308 307 306 305 304 303 303 303 304
292 293 294 293 294 295 296 296 298 297 297 297 298 299 299 300 301 301 302 303 304 304 304 305 304 305 307 310 312 314 315 316 316 315 315 316 317 316 315 315 315 316 317 318 318 319 318 318 318 318 317 316 313 294 294 293 293 291 295 313 313 312 311 310 309 308 308 309 309 309 309 309 308 306 297 293 299 305 304 304 303 302 302 301 298
293 293 293 294 294 295 296 297 297 298 297 296 297 299 299 299 299 299 300 301 303 302 302 303 305 305 304 305 308 310 312 313 314 314 315 315 316 315 315 314 314 315 315 316 317 317 317 317 315 316 317 316 311 296 292 292 291 293 302 312 311 309 308 307 306 306 307 308 308 308 308 307 306 304 293 291 293 299 304 303 303 302 301 300 298
293 294 294 295 295 296 296 296 297 297 296 297 298 298 298 298 299 298 298 300 300 301 301 302 302 303 305 304 305 307 309 308 307 309 312 314 316 317 316 313 314 313 312 312 312 312 313 315 314 315 316 314 309 298 292 292 293 295 303 311 310 309 307 305 304 304 305 304 301 298 304 307 305 303 290 292 293 301 305 304 303 301 300 299 298
293 293 293 294 294 295 295 296 296 295 296 297 297 297 297 298 298 298 298 298 299 299 300 300 301 303 304 305 305 306 307 307 307 308 310 312 312 312 313 312 313 314 313 311 310 311 310 310 312 313 306 311 308 299 292 293 293 292 302 312 309 308 306 305 304 302 303 303 301 296 294 297 300 295 289 290 292 301 306 304 303 302 300 299 298
293 294 293 293 294 293 293 293 293 294 295 296 296 296 297 297 297 298 298 298 298 298 299 301 301 302 303 304 306 305 306 307 307 307 306 308 309 309 307 307 308 308 307 307 307 308 306 305 305 307 307 310 309 307 300 291 293 293 296 311 311 309 307 305 305 303 302 302 301 299 295 289 289 289 289 289 290 293 303 304 303 302 300 297 297
292 292 292 292 292 292 292 292 293 293 294 295 295 295 296 296 297 297 297 298 298 299 299 300 301 301 302 302 304 305 305 307 308 307 306 305 306 308 307 307 305 305 306 305 304 304 303 303 303 305 307 308 309 307 300 291 292 293 293 301 311 310 308 306 304 302 302 301 300 299 298 290 289 289 289 289 289 290 293 302 301 300 299 297 295
292 292 291 291 292 292 292 292 293 293 293 293 294 293 294 295 296 296 297 298 298 298 299 299 299 300 301 302 303 305 306 307 307 308 308 306 305 306 307 309 308 307 306 304 303 304 303 302 301 303 305 305 303 301 303 293 291 292 292 296 308 310 307 306 303 302 301 301 300 299 298 291 288 289 289 289 289 290 291 298 294 288 287 289 297
290 290 291 290 290 290 290 291 292 292 292 293 293 292 293 294 294 296 297 298 298 298 298 298 299 299 300 301 302 303 304 306 307 307 308 308 307 306 307 308 307 306 302 300 299 300 301 301 301 301 302 303 304 301 296 299 291 291 290 292 296 300 294 306 304 302 301 299 299 298 295 289 288 288 288 288 289 289 292 293 287 287 287 287 292
290 290 290 290 289 290 290 291 291 292 292 292 291 291 291 292 292 295 296 297 297 297 297 297 298 298 299 300 301 301 303 305 305 304 304 308 307 306 306 307 308 306 303 300 298 299 299 299 299 298 299 300 301 302 294 293 294 289 290 290 291 291 294 305 305 302 301 299 299 299 294 288 288 288 288 288 288 290 291 287 287 287 288 290 296
288 288 289 289 289 289 289 290 291 291 291 291 291 290 290 290 293 294 294 294 295 295 295 295 296 297 298 299 300 301 302 302 305 304 303 303 305 305 304 306 307 306 304 302 299 299 299 298 297 296 296 296 298 300 300 293 290 290 289 289 289 289 290 292 300 300 300 299 293 288 288 288 288 288 287 288 288 287 286 287 287 287 291 296 295
289 289 289 288 289 289 289 289 289 290 290 291 291 291 290 291 292 293 293 293 293 293 293 294 295 296 297 298 298 299 301 302 301 302 303 302 303 304 305 305 306 306 305 304 301 299 298 297 297 296 296 297 297 299 298 296 293 292 290 288 289 289 291 292 294 295 289 288 288 288 287 287 288 291 295 295 294 293 287 287 287 290 296 294 294
288 288 288 288 288 288 288 288 288 290 290 290 290 290 290 291 291 292 292 292 292 292 292 293 294 295 296 297 298 298 301 300 299 301 302 303 302 302 303 304 305 305 305 303 300 300 300 299 296 294 295 296 297 297 298 298 298 297 296 294 294 293 290 291 294 293 291 293 292 292 292 289 289 287 289 289 290 290 292 293 294 294 294 293 293
289 289 289 288 287 287 287 288 288 289 290 290 290 290 291 292 292 292 292 291 291 291 292 292 293 294 295 296 297 292 294 298 299 303 302 303 303 302 302 302 305 306 305 302 302 301 301 299 295 293 293 294 294 295 296 297 298 299 299 299 298 297 298 298 297 297 297 294 292 288 290 294 294 294 294 295 294 294 291 289 293 293 292 291 290
288 288 288 287 287 287 287 288 288 290 291 291 292 292 292 292 292 292 292 291 290 290 291 292 293 293 294 296 296 297 298 298 299 300 301 300 302 302 302 303 307 305 305 305 304 303 301 304 301 296 296 297 294 293 295 294 298 293 296 299 298 298 298 298 294 292 295 295 295 295 293 293 292 291 291 291 292 292 291 291 292 292 292 292 292
289 288 288 288 288 288 288 288 289 290 291 291 291 292 293 293 293 292 292 290 290 290 290 291 292 293 294 295 296 296 297 298 298 299 300 299 287 289 296 301 302 295 292 291 293 301 304 303 301 301 302 303 298 298 291 289 289 290 290 291 292 292 291 293 289 289 292 293 292 291 292 291 291 292 291 290 290 290 290 290 289 288 290 290 289
288 287 287 287 288 288 289 289 289 290 290 291 291 292 292 293 293 292 292 291 290 289 289 290 291 292 292 294 294 295 297 298 299 299 299 299 299 294 287 286 289 293 292 291 291 290 290 294 299 300 298 290 290 289 288 289 288 288 289 288 288 288 288 287 287 291 292 292 291 291 290 291 291 291 290 290 289 289 289 289 289 289 290 289 288
Wind_Speed
9 9 10 10 9 7 6 6 7 6 6 7 6 3 4 9 8 10 8 8 7 7 6 6 6 4 3 3 4 4 4 4 3 2 2 2 3 3 3 3 4 4 4 4 4 3 3 3 4 4 3 3 3 4 5 6 6 7 7 7 9 7 4 3 3 3 5 4 2 2 2 1 2 2 1 1 3 3 3 3 3 3 2 2 2
9 8 10 9 7 8 7 6 7 9 7 8 9 8 6 7 11 9 6 8 9 6 5 5 4 4 4 4 4 4 5 4 4 3 2 3 4 4 4 4 3 4 4 5 4 4 4 4 4 3 2 3 4 4 5 6 7 7 7 7 5 6 5 5 4 5 3 3 3 3 2 2 1 1 0 3 4 4 3 3 3 3 2 3 3
10 10 10 10 10 9 7 8 8 8 9 9 7 7 8 7 7 8 7 7 6 5 6 5 3 2 2 3 4 4 3 2 3 3 3 4 3 4 5 5 4 3 4 5 5 4 4 4 4 4 3 4 4 4 5 5 5 6 6 7 7 4 4 4 4 3 2 3 2 3 3 3 2 3 4 5 4 4 3 4 3 2 3 3 3
11 12 12 11 10 10 8 10 10 9 7 6 6 8 7 6 7 8 7 7 6 6 5 4 5 5 5 4 4 2 4 4 4 4 5 5 5 3 4 5 6 5 5 5 4 5 5 5 5 4 4 4 4 4 4 4 4 4 4 5 7 6 4 4 1 1 2 4 4 1 1 1 5 4 4 5 4 5 5 4 4 4 4 5 3
12 12 12 12 13 12 11 10 7 8 10 10 9 9 6 9 9 9 8 8 7 7 7 7 7 6 6 5 5 6 5 5 5 4 3 4 5 4 3 3 5 6 5 5 5 5 5 5 5 5 5 4 4 4 4 4 4 4 4 5 5 5 5 3 3 2 2 2 3 4 2 3 2 5 4 5 4 6 7 6 5 5 5 4 4
11 13 13 13 12 11 11 10 10 10 10 10 10 10 9 9 10 9 7 7 8 9 9 8 7 8 7 7 6 4 5 4 4 5 4 3 4 2 4 3 3 4 5 5 5 6 5 5 5 5 5 4 3 4 4 5 5 5 6 5 6 5 5 5 4 3 2 2 2 3 2 1 5 2 2 5 2 4 5 7 7 7 6 7 7
7 8 11 12 13 12 12 11 12 11 12 11 11 11 11 10 11 11 9 8 8 9 10 8 8 8 9 8 7 7 6 3 2 3 4 3 3 4 3 3 3 3 4 5 6 6 6 5 5 5 5 4 4 4 4 5 5 5 4 4 4 4 5 4 5 5 4 3 1 1 1 1 3 4 3 7 7 5 7 7 8 10 9 10 9
9 10 12 13 13 15 16 14 12 13 12 12 11 11 13 13 13 12 8 9 8 8 10 9 9 8 7 6 5 5 5 6 5 4 4 4 5 4 3 3 3 3 3 4 5 6 5 5 4 4 4 3 3 3 4 4 4 4 4 3 3 3 4 3 5 5 5 5 3 3 4 3 2 1 2 3 6 7 7 8 9 9 10 9 9
11 10 12 13 14 14 13 13 13 13 12 12 12 11 10 10 10 9 9 8 7 10 9 9 7 8 7 7 6 4 6 6 5 4 4 4 6 4 4 3 3 3 3 3 3 4 4 4 4 4 3 3 2 3 4 4 5 5 5 4 4 3 3 3 5 5 4 6 6 3 3 4 4 2 2 3 6 7 7 8 9 9 11 9 8
10 11 9 7 7 7 6 5 5 3 10 13 11 3 5 8 9 10 9 6 6 8 7 8 7 7 6 6 8 7 6 6 5 6 5 4 6 5 4 3 3 3 3 3 3 4 4 4 4 4 4 3 2 2 4 4 4 4 4 4 4 4 3 3 3 4 3 5 4 4 4 4 5 5 4 5 3 3 7 8 7 8 9 7 6
8 7 4 6 6 6 5 6 11 15 16 18 17 16 14 8 4 11 9 7 7 7 8 9 8 8 7 8 8 8 7 7 7 5 5 5 5 4 4 3 3 3 2 3 3 3 3 3 3 4 3 2 2 2 3 3 4 3 3 4 4 4 3 4 4 4 3 5 5 5 5 4 4 5 5 3 4 6 8 8 7 7 9 8 6
6 6 7 8 8 8 8 8 10 12 13 13 9 9 12 14 17 13 2 8 7 7 7 8 7 7 7 8 8 7 7 6 6 6 5 6 5 5 3 3 3 3 2 3 3 3 3 3 4 4 4 3 3 2 2 3 3 3 3 3 4 4 5 5 5 5 5 4 3 2 3 3 4 4 3 3 4 6 7 9 8 7 7 7 5
6 7 8 8 7 7 7 7 9 9 8 11 12 10 10 6 7 12 17 15 1 4 6 6 6 6 6 7 6 5 5 5 5 5 4 5 4 4 4 4 3 3 2 3 3 3 2 3 3 3 3 3 3 4 3 3 3 3 4 5 5 5 5 6 5 5 5 6 5 3 4 4 4 3 3 3 3 4 7 8 6 4 7 6 5
7 7 7 7 7 7 8 7 5 4 7 8 10 10 10 10 10 8 3 7 14 8 5 6 8 7 6 5 4 4 4 3 3 4 4 4 3 4 3 3 3 3 3 3 3 3 3 3 3 4 3 4 3 4 4 3 3 4 4 5 5 4 4 6 6 5 5 5 4 5 5 5 4 3 4 3 4 5 7 8 8 5 6 7 5
8 8 9 9 9 10 9 8 7 6 8 5 5 8 8 8 9 11 10 7 7 10 8 10 9 10 7 4 2 3 4 4 4 3 3 4 3 3 3 2 3 3 3 3 3 3 3 3 3 4 3 3 3 4 3 3 3 4 4 5 4 4 5 5 5 6 5 5 5 5 5 5 4 4 3 4 3 3 6 8 9 10 6 5 5
9 11 11 11 10 9 7 6 6 8 9 9 7 7 7 7 7 6 9 11 11 6 3 7 9 9 8 6 4 3 4 4 4 5 4 4 3 2 3 2 2 3 3 3 4 3 3 3 4 5 4 4 4 4 3 3 3 4 4 4 5 2 4 6 5 5 5 6 6 5 6 6 4 4 4 4 5 5 4 2 3 7 8 7 5
9 9 10 10 9 7 3 1 3 3 3 7 5 3 8 7 7 9 12 12 13 9 9 9 9 10 8 9 7 7 6 6 4 5 4 4 2 1 2 3 3 2 3 3 4 3 3 3 4 5 4 4 4 4 4 4 3 4 4 5 5 3 3 4 3 5 5 5 5 5 6 5 5 4 4 4 4 4 4 3 1 1 3 6 5
11 9 8 8 7 12 7 6 1 3 2 3 3 3 5 6 8 13 12 12 12 13 10 2 6 10 11 8 5 5 6 6 4 3 5 4 2 0 2 3 3 3 3 3 4 4 4 4 4 4 4 4 4 4 4 4 4 5 5 5 4 4 5 4 4 4 4 4 5 5 5 6 4 4 4 3 3 3 3 4 5 4 2 3 3
8 7 6 5 3 3 1 4 1 3 3 2 3 4 4 5 9 12 12 11 11 9 9 7 9 10 10 11 12 10 8 8 8 6 2 6 6 3 2 3 4 4 4 4 4 4 3 3 3 4 4 4 4 4 4 4 4 5 5 5 4 3 5 5 3 4 3 4 4 5 4 4 3 3 3 3 3 3 3 3 4 4 5 5 4
7 7 7 6 7 3 3 4 4 4 2 1 2 3 6 8 10 11 10 11 12 13 13 11 10 10 9 8 7 7 8 6 5 6 6 3 4 4 3 4 4 4 4 5 4 4 4 4 3 3 4 3 4 4 4 4 4 4 5 5 4 5 6 6 5 3 3 3 4 4 3 4 3 3 4 3 3 2 2 3 4 5 5 4 4
7 7 9 9 7 5 6 6 6 5 5 3 3 5 6 7 9 12 13 13 13 12 11 9 9 9 9 9 9 7 7 5 6 5 5 4 4 4 3 1 3 4 5 5 5 5 4 4 4 3 3 3 3 3 3 3 4 4 4 4 4 4 5 4 5 5 4 3 4 5 4 3 1 3 3 3 4 4 4 3 3 4 5 3 3
8 6 6 7 7 7 8 7 7 7 6 6 5 6 7 7 8 10 11 11 12 12 10 10 8 8 10 9 9 7 6 5 5 4 5 5 5 4 4 3 4 3 5 6 6 5 4 4 4 4 4 4 3 4 3 2 3 3 4 2 2 3 3 4 3 4 4 2 3 4 5 4 1 3 3 4 5 5 5 5 4 4 4 4 1
9 10 10 11 10 9 9 9 9 9 7 6 5 5 6 7 7 8 10 10 10 11 8 8 8 8 8 6 5 5 5 5 4 3 5 5 6 6 6 5 4 3 2 4 6 6 6 5 5 4 4 3 4 3 3 2 2 1 1 2 2 1 2 2 3 3 4 3 3 3 4 3 2 3 3 3 3 4 4 4 5 3 4 4 3
11 11 11 10 9 9 9 10 9 8 8 7 5 4 4 5 5 7 7 8 8 8 8 7 8 8 7 5 4 5 5 4 6 6 7 6 6 6 6 6 5 4 4 3 5 6 6 6 6 5 4 4 3 3 3 2 3 2 1 1 0 0 1 1 2 2 3 4 4 4 4 4 3 4 4 3 3 3 3 4 5 4 5 5 4
13 13 12 12 12 12 10 9 9 8 7 6 5 4 3 3 4 5 5 7 7 6 7 7 7 6 5 5 6 6 7 9 8 4 4 4 5 6 6 7 6 5 5 4 5 6 7 7 7 7 6 5 4 4 4 3 3 2 1 1 1 1 1 2 3 3 3 4 4 5 5 6 5 5 4 4 4 5 4 4 4 4 4 4 3
12 12 13 14 11 10 11 11 10 10 9 8 6 4 3 2 2 2 4 5 5 5 5 5 5 5 5 6 6 7 8 6 3 3 3 1 2 4 5 5 7 7 7 6 7 6 7 8 9 8 8 7 6 5 5 4 3 2 1 0 0 1 2 3 4 4 4 4 5 6 5 5 6 6 6 5 5 7 5 5 5 4 4 4 4
13 12 11 11 13 13 13 13 12 11 9 8 7 6 5 4 3 2 1 2 4 4 4 5 5 6 6 7 7 8 7 6 7 5 6 6 6 5 6 7 6 8 8 8 8 8 7 7 8 7 7 6 6 5 4 4 3 3 3 2 2 2 3 3 4 5 5 6 6 6 6 6 7 7 7 7 7 7 5 7 6 5 5 5 4
14 15 15 14 13 13 14 14 13 12 11 10 9 8 7 6 5 4 3 3 1 2 4 5 5 6 7 7 7 6 6 7 6 4 4 6 6 7 7 7 8 8 8 9 9 9 7 7 7 7 7 6 4 3 4 4 3 4 4 4 3 3 4 5 5 5 5 6 6 7 7 7 7 7 7 7 7 7 6 7 5 5 5 5 4
16 15 14 14 14 13 14 14 12 13 13 12 10 9 8 7 5 4 3 2 2 1 2 4 6 7 8 8 6 6 6 7 7 6 5 5 6 7 8 8 8 7 5 7 7 7 7 7 7 7 7 5 3 2 2 2 4 5 5 6 7 6 6 6 6 6 5 5 6 6 6 6 5 5 6 6 5 5 6 7 6 6 6 6 5
15 14 14 13 14 14 13 13 13 14 14 13 11 10 8 8 7 5 4 3 0 1 3 4 6 7 6 5 6 5 6 7 8 8 8 9 8 8 9 10 10 8 6 5 7 7 6 6 5 4 4 4 2 2 4 5 5 2 7 6 6 7 6 6 7 7 7 6 5 5 5 5 4 6 8 9 9 8 8 7 7 7 7 6 6
14 14 14 14 14 14 14 14 13 13 12 10 9 9 8 9 7 5 4 4 2 0 2 3 5 4 3 2 3 4 5 7 7 7 6 9 10 9 11 11 7 7 8 6 4 5 6 5 4 3 5 7 7 7 13 11 11 10 6 6 6 6 6 6 6 6 7 6 5 4 3 3 5 7 8 11 10 10 11 10 7 10 9 7 7
14 14 14 15 15 14 14 13 12 12 12 11 10 9 10 9 8 6 4 3 3 1 1 2 3 3 3 3 3 3 5 6 7 8 8 8 8 9 10 8 6 8 8 9 10 10 8 7 7 9 9 8 7 8 14 12 11 10 9 6 4 4 4 4 4 5 5 5 5 5 4 3 3 4 4 5 8 10 10 5 4 5 5 9 8
12 13 13 12 12 11 11 11 11 11 11 12 10 10 10 8 8 7 6 5 4 3 3 2 2 3 3 2 5 6 6 7 7 7 6 6 7 9 9 9 10 10 8 10 10 9 11 11 10 10 9 7 6 9 12 12 12 11 10 6 3 3 3 3 3 3 4 4 4 4 3 2 2 1 4 4 3 5 6 7 9 9 9 8 7
11 11 11 10 9 9 10 10 10 10 9 8 9 9 7 6 6 7 8 8 7 5 4 3 3 3 2 2 1 4 6 5 4 5 6 8 7 9 9 8 7 7 8 8 9 12 9 9 9 9 9 7 6 9 12 11 11 9 8 6 3 2 1 1 2 2 2 3 3 3 3 3 3 2 2 1 2 4 6 7 7 6 6 6 7
10 11 11 10 10 10 11 12 12 11 10 10 11 10 8 9 9 9 8 7 7 7 7 6 4 2 1 2 4 3 4 4 3 3 4 7 10 9 7 6 5 6 7 8 10 11 10 8 8 8 7 6 5 11 11 11 8 8 9 6 2 3 2 2 1 1 2 2 3 3 3 3 3 2 3 2 2 4 7 7 7 6 5 4 5
9 9 9 10 10 10 10 9 8 9 11 11 10 10 9 9 8 9 8 8 7 7 8 7 6 6 4 2 4 5 6 6 6 5 6 6 5 5 5 3 3 6 7 7 8 7 8 8 7 7 7 6 4 7 8 8 9 9 9 4 4 4 3 3 3 4 3 3 3 3 2 2 3 3 5 5 4 5 7 7 7 6 5 5 6
7 7 8 8 7 8 8 7 8 8 10 10 10 10 9 9 10 10 9 8 8 9 9 8 6 5 6 6 5 5 5 5 6 6 7 8 7 8 7 6 8 8 9 8 7 7 6 5 5 6 7 6 5 6 9 11 11 11 8 5 5 5 4 5 3 2 2 3 4 3 3 3 4 5 6 6 5 3 5 6 6 5 4 4 5
7 7 7 7 7 7 7 7 8 9 11 10 11 11 10 9 9 10 10 9 9 9 9 9 8 8 6 5 5 6 6 5 5 7 8 7 7 6 7 6 6 5 4 4 3 2 3 6 8 8 7 7 6 7 10 12 13 11 7 7 6 5 5 5 4 3 3 5 7 10 6 5 6 5 6 6 3 1 4 5 5 5 5 4 4
8 8 9 8 8 8 8 9 9 10 10 10 11 11 10 9 9 9 9 9 9 10 10 10 9 9 8 6 5 6 6 5 5 6 5 6 6 6 4 5 6 7 5 4 5 5 4 4 4 5 7 9 8 7 10 12 12 10 7 5 5 6 6 5 5 5 5 5 6 9 11 9 8 6 8 7 4 2 5 4 4 4 4 4 3
8 8 9 8 8 10 10 10 10 10 10 10 10 9 9 8 9 8 8 8 9 10 10 9 10 9 8 7 5 5 6 6 6 4 3 5 3 3 4 4 3 2 3 3 4 4 5 4 4 5 5 6 8 6 7 11 11 10 9 6 5 5 5 5 5 5 6 5 6 6 8 9 11 11 11 10 10 8 5 4 3 3 3 4 4
8 8 9 8 9 9 9 10 9 10 11 10 9 8 8 8 7 7 8 8 9 9 10 10 10 10 10 9 7 5 6 7 6 4 2 3 4 6 6 6 5 3 3 3 3 3 4 4 3 3 4 3 4 7 6 10 10 10 9 7 5 5 6 6 5 5 5 5 5 5 6 7 11 11 12 11 11 11 8 5 4 4 4 5 3
5 6 7 8 7 7 8 8 8 9 9 9 9 9 9 8 8 7 8 7 8 9 9 10 10 11 10 10 9 7 5 4 5 5 4 4 4 2 5 7 6 6 6 4 4 4 5 5 3 3 4 4 3 4 7 7 10 10 9 4 4 4 5 6 6 5 5 5 5 5 6 6 10 11 11 11 11 10 9 7 7 8 7 4 3
10 10 10 10 10 9 9 8 7 7 7 7 8 10 9 9 9 10 8 7 8 8 9 10 10 10 10 10 9 9 7 4 4 5 6 6 4 5 4 5 7 6 7 6 5 4 6 6 4 3 3 3 4 4 5 7 8 9 8 5 7 7 5 6 6 6 6 6 6 7 6 7 10 10 11 10 9 9 9 7 8 8 7 4 2
7 8 9 10 9 9 10 9 8 7 7 7 7 8 9 10 12 10 9 9 9 9 9 9 9 10 10 10 10 9 8 6 4 3 5 6 5 6 5 5 6 7 7 6 5 5 5 6 6 4 3 3 3 4 4 5 7 7 8 9 9 9 7 4 5 6 6 6 7 6 7 9 10 11 12 12 11 10 8 8 8 7 5 2 1
8 9 9 9 9 10 10 10 9 9 8 7 7 8 10 11 10 10 10 10 10 10 9 9 9 9 9 9 9 9 8 6 4 2 3 4 5 4 5 4 5 5 6 7 6 6 6 7 6 6 4 3 3 4 4 5 8 9 10 10 10 10 9 10 8 7 6 6 9 12 12 12 12 13 13 12 11 10 9 8 7 4 2 1 2
8 9 10 10 10 10 10 11 11 10 9 7 7 8 11 11 10 10 10 11 11 11 10 10 10 9 9 10 10 10 9 6 6 6 4 2 2 4 4 6 5 6 6 7 7 6 6 6 7 7 7 6 5 5 5 6 6 8 9 10 12 12 11 11 11 10 12 13 13 13 13 12 10 8 7 6 6 6 7 7 4 1 1 2 2
10 11 12 11 11 11 12 13 14 11 10 9 10 9 10 10 10 10 11 11 11 11 11 10 10 10 9 9 9 9 7 7 8 5 4 4 2 2 4 4 6 7 7 7 7 7 7 7 6 6 6 7 6 6 7 7 7 7 8 10 10 10 14 15 11 9 11 9 9 8 7 9 9 10 9 8 8 7 5 3 2 2 2 2 2
10 11 12 12 12 13 14 15 14 13 12 12 12 12 12 13 13 12 12 12 12 11 11 11 11 10 9 9 9 8 9 7 8 5 3 4 3 3 5 5 5 4 5 1 3 5 7 6 6 6 6 5 5 6 7 8 8 8 8 8 9 10 9 8 9 9 8 9 9 10 10 7 7 6 5 4 3 3 2 1 1 1 1 1 0
12 12 12 11 12 13 14 14 14 13 13 13 14 13 13 14 14 13 13 14 13 14 13 13 11 10 10 8 8 8 8 8 8 7 4 4 4 5 5 3 2 0 2 1 4 3 3 6 7 7 7 5 4 6 7 7 10 11 10 10 9 9 8 8 9 12 10 8 8 6 4 5 4 3 2 2 2 2 1 2 2 2 1 1 2
11 10 11 11 11 11 13 14 14 13 13 13 14 14 14 14 13 13 13 14 14 14 14 13 11 10 10 8 8 8 8 8 7 7 5 3 4 2 3 6 6 6 7 6 3 4 6 5 6 6 7 7 9 9 11 11 12 12 12 12 11 12 11 11 13 13 10 7 5 4 3 3 3 2 2 2 1 1 1 1 1 1 1 2 3
11 11 11 11 11 12 13 13 13 12 13 13 14 14 14 14 14 14 14 14 13 13 13 11 12 11 10 8 8 8 8 8 7 7 5 4 4 5 6 1 4 5 8 9 11 11 6 1 6 5 4 7 5 12 17 14 13 12 12 14 15 15 17 17 15 9 6 6 6 4 4 3 2 1 1 1 1 1 1 1 1 1 1 2 2
Wind_Direction
178 166 170 178 175 164 152 151 154 170 164 167 204 179 148 149 156 190 187 184 176 174 176 173 172 146 142 165 138 134 133 136 131 122 115 102 116 123 133 133 144 152 161 162 157 149 139 135 143 146 139 132 130 123 131 132 137 136 127 126 132 138 139 146 151 158 154 143 159 158 133 51 66 71 86 61 50 40 9 3 6 15 316 4 25
151 161 172 174 174 159 153 155 162 169 190 184 185 174 183 172 161 183 166 181 188 174 160 169 176 175 169 170 149 139 147 152 134 126 109 107 116 122 123 123 133 143 149 151 156 153 146 143 146 130 138 115 97 111 118 127 135 138 135 119 135 152 146 160 166 176 173 178 164 166 135 90 56 56 87 53 40 41 21 2 11 347 5 8 18
167 171 173 178 176 165 157 172 182 190 187 189 176 163 171 177 168 173 175 172 178 173 163 171 161 123 169 137 141 112 52 63 102 104 118 113 111 116 117 125 130 130 138 139 141 150 150 144 135 131 140 115 118 118 128 133 142 144 149 136 135 130 133 152 163 228 171 153 111 165 147 163 149 138 102 54 45 38 21 16 353 359 14 22 20
171 172 178 179 176 168 165 179 185 176 178 183 181 178 179 177 171 175 174 171 165 171 164 124 108 90 75 94 86 104 130 119 107 124 123 123 111 109 113 118 120 118 126 131 129 128 130 128 131 131 118 115 121 132 140 147 164 156 147 146 136 134 160 158 156 114 188 166 171 238 96 200 145 94 71 52 50 61 45 28 17 21 25 41 40
176 174 174 176 181 180 179 193 171 180 179 180 182 186 183 176 176 180 175 168 165 165 156 137 123 107 100 95 106 105 121 139 133 104 100 113 119 107 94 121 123 119 119 120 120 123 124 125 124 121 122 126 136 137 145 160 169 164 159 152 171 171 162 151 164 173 131 263 163 148 145 196 97 114 115 67 51 72 59 56 41 35 42 48 57
188 177 175 175 176 174 184 191 181 190 189 186 185 188 178 174 177 180 170 163 166 167 157 154 151 141 146 150 156 152 147 155 148 132 130 108 89 94 100 84 103 112 115 116 121 127 127 127 125 126 128 139 146 145 154 157 178 187 186 190 184 185 165 155 155 168 136 147 298 338 344 92 146 126 201 110 78 81 70 61 60 57 60 66 61
198 173 169 173 177 176 187 194 191 192 199 183 183 187 182 176 177 177 171 167 165 163 164 158 154 161 170 170 165 162 148 107 86 95 113 112 102 83 70 60 65 108 113 122 126 127 130 131 132 132 132 136 143 158 156 162 166 168 167 185 164 148 156 163 161 160 145 126 150 10 3 11 131 162 147 139 131 96 62 62 62 64 62 62 63
190 187 182 181 178 180 189 192 193 201 196 186 181 181 180 177 175 175 168 165 166 161 168 171 163 168 163 153 145 145 141 139 137 120 114 120 108 97 94 76 53 57 95 111 125 129 127 126 127 126 129 131 156 159 156 151 149 147 168 177 158 169 172 169 167 176 175 136 132 140 131 102 88 54 148 191 143 132 104 82 74 68 65 60 61
193 189 190 185 183 186 184 191 200 204 199 190 187 178 172 168 168 166 162 161 164 167 167 176 169 164 163 149 134 130 129 130 128 122 116 111 101 91 83 81 70 51 58 97 107 117 129 135 136 139 143 148 164 135 134 141 153 159 169 176 179 174 185 157 164 169 161 142 147 144 145 130 123 93 108 153 138 129 116 115 103 85 72 61 60
202 201 194 180 169 171 183 196 197 358 9 7 9 25 152 157 162 163 161 161 156 166 171 167 169 158 154 152 138 138 130 125 130 127 121 125 106 100 97 88 79 75 71 75 96 107 119 137 150 147 151 145 146 108 133 144 154 167 177 187 181 172 169 157 143 147 144 149 163 143 135 126 125 121 109 110 92 131 143 142 130 110 89 65 55
200 189 142 101 105 126 139 137 83 60 43 30 17 9 1 337 207 171 157 144 153 171 174 170 172 166 157 154 141 132 132 132 134 126 126 123 112 104 99 93 79 77 70 71 71 95 109 114 116 122 125 122 120 137 155 148 152 153 156 159 163 161 146 130 127 123 128 145 156 153 148 151 142 145 147 150 147 135 133 132 127 111 110 101 70
168 137 127 133 135 142 140 129 115 112 119 118 103 55 25 2 358 346 67 150 162 176 183 175 172 164 145 143 139 140 144 148 145 136 133 121 114 110 104 102 90 85 80 88 76 76 96 100 102 106 107 116 114 108 109 123 126 130 133 135 121 119 123 125 119 121 124 125 130 127 120 116 120 131 132 145 151 148 146 139 132 126 114 103 114
146 141 141 146 139 132 120 117 119 114 120 133 130 128 128 109 35 3 348 339 296 168 193 182 166 147 138 135 124 129 133 135 133 122 119 119 116 117 120 109 110 110 95 92 76 66 72 90 94 94 100 98 110 113 109 111 118 119 116 117 122 127 128 129 128 128 131 129 124 113 120 116 107 98 122 123 100 116 134 134 125 142 123 119 121
139 133 121 107 90 78 65 58 68 102 147 155 152 149 146 139 138 132 116 341 337 342 2 24 32 37 49 61 94 116 116 111 109 120 112 108 117 118 119 120 122 114 111 80 69 70 68 59 71 79 81 98 102 103 110 113 118 117 117 111 106 98 110 109 112 112 99 106 125 124 110 107 106 108 111 121 127 141 142 139 134 116 125 121 113
118 112 108 104 91 84 78 76 68 39 340 298 185 150 140 150 158 147 142 113 44 1 24 56 64 58 53 49 56 127 137 130 121 103 108 109 100 104 99 104 114 105 93 86 73 69 74 79 73 85 82 83 89 95 92 94 86 96 96 94 96 108 114 114 116 122 120 124 115 117 117 115 115 118 113 96 104 114 137 143 145 139 136 134 125
120 118 114 109 113 116 124 135 159 171 182 238 230 165 151 155 153 133 101 87 92 89 100 124 128 128 135 145 149 120 93 99 91 84 78 51 24 91 107 86 74 90 88 92 69 66 72 85 85 71 65 62 60 67 72 85 78 92 98 97 100 85 114 114 120 119 119 121 119 122 119 112 113 108 98 83 75 74 94 140 173 155 148 142 138
126 123 120 126 128 129 98 313 154 111 153 227 236 180 164 147 141 111 102 107 118 145 177 192 163 152 154 111 99 87 81 71 74 93 95 98 103 36 104 97 93 95 94 91 92 80 73 68 81 83 74 73 73 68 67 68 61 70 78 82 85 72 85 94 96 112 113 120 121 121 112 115 104 90 85 87 84 76 74 69 60 143 153 146 149
131 125 119 130 141 123 172 196 151 103 170 202 190 173 174 144 120 105 125 151 156 165 181 133 71 64 69 78 77 100 101 91 62 74 103 80 8 170 131 139 126 119 111 107 106 98 90 85 93 93 92 90 89 91 89 91 95 88 82 78 74 83 87 78 72 93 98 104 114 114 115 112 109 104 98 91 94 88 82 76 71 60 52 113 121
31 43 57 61 38 31 70 76 102 128 153 144 150 157 147 116 120 138 153 159 156 153 126 128 139 150 165 160 159 146 137 141 157 143 148 159 174 197 191 139 132 140 133 129 126 115 108 104 104 103 101 99 97 94 98 95 102 108 103 101 94 104 103 95 81 88 92 105 108 104 104 108 113 109 115 110 105 104 101 95 82 67 65 67 83
40 51 64 59 56 47 44 59 44 31 56 121 144 133 133 125 128 143 150 153 155 156 162 164 158 148 161 171 162 147 152 150 131 130 148 165 151 180 183 165 158 143 137 137 137 136 134 133 127 120 114 108 102 97 92 98 101 105 118 118 119 131 125 124 124 122 119 117 117 116 106 111 120 128 122 121 116 97 92 102 98 93 89 78 76
59 59 69 71 72 68 69 67 72 75 79 98 122 134 128 130 142 151 157 161 165 167 169 163 165 168 166 164 156 156 157 149 138 140 140 148 150 165 188 168 146 158 148 149 148 146 144 138 135 128 114 109 105 98 92 102 107 110 110 114 131 141 140 136 140 141 142 141 133 124 120 113 130 124 122 131 125 123 121 110 109 110 104 94 85
63 60 67 72 64 53 50 54 61 77 85 95 107 118 131 142 148 156 159 167 168 171 173 165 170 171 178 170 162 161 155 148 147 142 147 153 157 160 162 177 194 179 168 157 156 145 142 136 120 116 117 114 107 100 94 104 119 126 124 127 134 152 147 140 154 149 144 136 148 147 141 145 164 146 151 146 141 147 144 138 135 126 114 107 87
53 52 50 51 47 40 45 44 41 36 37 60 92 107 120 135 147 162 168 170 172 174 169 163 172 178 180 174 161 153 136 128 138 154 160 168 164 160 161 173 189 179 210 165 151 150 141 133 119 112 112 112 116 117 112 107 93 79 110 122 138 152 173 169 174 164 163 152 166 165 157 156 164 169 169 144 153 159 159 138 132 126 117 111 108
57 54 51 52 48 42 42 44 44 40 35 36 45 68 101 130 156 165 172 166 170 174 174 171 174 182 181 172 152 107 113 153 187 184 176 171 167 159 161 167 175 168 182 172 152 144 136 130 124 119 117 111 106 106 113 104 88 74 39 23 38 222 235 249 246 213 189 187 188 188 183 176 180 189 180 167 174 168 171 142 143 136 134 129 119
52 50 47 46 44 40 37 40 41 40 44 48 64 85 116 131 160 173 170 169 173 173 178 179 178 175 177 169 144 144 177 195 193 164 151 158 169 166 163 166 163 170 162 156 150 146 144 141 137 137 129 123 117 108 97 93 103 116 125 156 228 241 240 249 250 245 227 224 209 213 200 189 190 201 189 196 178 181 174 163 160 152 146 136 137
59 57 51 47 43 44 41 39 41 36 31 29 33 43 67 120 129 140 164 172 173 172 180 176 177 183 184 179 165 179 203 222 203 144 125 113 181 175 164 165 172 164 153 155 156 158 159 153 147 141 134 129 128 122 112 104 100 106 112 92 295 276 263 251 241 245 243 233 233 229 219 202 200 208 207 197 186 187 174 176 167 168 152 148 140
56 56 57 55 48 45 45 44 42 39 33 36 32 31 32 24 31 28 25 188 179 177 174 180 187 197 196 198 194 198 205 218 226 180 156 172 178 175 173 176 173 163 162 161 165 160 161 152 142 138 135 129 126 134 139 130 103 65 35 14 354 309 275 253 247 243 238 238 239 240 231 216 218 220 217 203 193 188 183 187 176 166 167 159 160
57 51 48 48 46 43 43 42 42 40 37 37 36 32 31 27 20 9 0 355 358 214 199 199 200 208 216 212 209 206 212 224 232 215 177 177 163 164 173 166 172 173 169 163 159 157 148 144 137 126 113 115 127 136 101 86 64 36 6 344 328 294 287 272 254 240 233 236 235 235 233 226 227 230 230 219 201 199 190 192 179 170 170 175 173
56 52 50 47 45 41 39 39 38 38 38 36 33 28 23 29 28 25 22 13 1 299 240 221 215 220 221 219 210 206 216 226 231 220 194 203 171 168 167 170 171 164 158 159 154 148 152 152 151 147 146 138 121 113 108 96 62 24 348 316 309 298 282 279 276 270 252 240 243 241 237 238 230 245 262 270 246 220 192 194 178 180 178 182 181
55 53 52 50 48 46 44 42 38 37 36 35 34 33 30 27 19 16 30 20 350 195 219 224 229 233 235 233 223 211 216 224 226 220 201 193 180 168 173 176 177 170 159 155 150 149 147 155 161 165 126 94 169 183 191 148 138 169 258 264 270 267 267 271 274 277 275 262 252 255 252 233 237 230 231 233 238 239 239 233 171 184 178 185 187
54 50 48 46 43 41 39 38 36 34 33 33 31 33 33 36 27 21 16 2 350 215 222 234 241 252 255 244 241 231 223 228 227 226 201 192 189 180 183 183 171 155 159 154 164 163 170 179 177 168 160 184 198 195 197 189 192 208 213 222 243 263 275 274 271 270 274 281 277 274 283 211 207 214 219 219 226 220 220 246 220 181 178 184 191
48 47 45 42 41 37 35 32 29 27 28 25 20 24 31 27 22 23 26 27 11 351 215 242 267 268 256 249 245 236 239 238 234 225 216 201 188 184 188 183 166 183 178 185 198 198 199 204 215 210 200 199 203 187 173 180 183 188 208 227 234 253 260 265 270 274 283 295 301 302 299 297 284 283 293 219 206 208 215 213 178 168 85 40 24
43 42 41 38 37 34 31 27 28 26 24 22 20 22 22 16 18 14 22 34 62 42 344 308 285 253 234 235 243 245 242 238 237 235 227 206 193 195 193 187 196 202 194 198 191 194 215 207 202 203 208 208 206 166 172 170 174 190 200 215 230 231 248 262 284 299 306 307 309 309 307 303 324 165 233 244 235 168 141 121 118 98 79 70 68
45 40 37 32 29 26 24 23 22 20 18 14 23 18 7 8 8 21 28 26 21 31 51 45 0 334 307 239 245 236 231 226 223 229 229 223 212 206 203 203 203 200 203 203 195 209 209 201 196 200 199 194 195 166 171 169 184 183 169 182 219 190 234 349 354 356 338 327 326 321 323 332 6 347 332 268 211 162 146 140 145 145 117 103 81
38 33 29 24 22 19 17 16 13 6 7 13 16 9 4 16 14 16 17 19 21 25 31 19 24 38 333 286 264 250 236 222 216 221 226 226 225 222 218 220 214 213 212 206 202 208 208 198 194 194 188 179 173 159 172 178 174 154 165 183 136 108 95 75 61 42 20 8 354 344 338 341 358 4 21 351 174 156 146 137 126 105 95 79 59
29 25 22 17 13 11 12 4 357 3 9 10 7 358 5 11 12 17 7 9 8 16 20 22 19 6 341 290 247 237 233 232 223 214 216 220 214 218 231 213 227 236 234 220 206 203 193 191 184 181 182 176 143 164 161 150 140 152 146 135 122 126 127 108 69 43 28 25 21 11 18 39 45 53 58 55 60 124 125 120 110 106 101 87 70
32 28 26 22 4 358 5 2 3 7 13 358 356 355 0 6 10 7 3 3 5 8 5 4 6 7 357 331 298 267 248 236 227 220 220 220 217 207 202 191 205 213 218 212 204 200 194 165 172 194 183 160 144 145 144 145 144 136 124 132 141 134 115 100 84 77 73 56 41 33 58 68 68 67 35 69 79 97 120 120 116 110 103 102 95
37 32 29 27 15 3 7 10 7 14 11 358 355 356 355 2 2 359 357 354 2 3 359 357 352 350 340 335 308 278 256 227 218 225 222 217 214 208 205 186 190 205 218 231 200 199 191 184 185 188 188 157 143 142 150 138 131 132 145 150 152 129 120 115 112 88 87 79 57 36 36 82 81 74 59 71 55 139 127 123 126 126 128 120 113
25 22 17 14 13 5 5 7 8 7 1 356 354 352 353 353 353 350 346 347 352 353 352 347 342 337 334 330 319 290 272 252 233 227 223 223 209 203 193 173 198 206 197 169 189 185 171 169 179 166 155 149 136 137 138 128 133 150 178 152 144 136 129 127 119 104 89 90 80 56 44 54 74 85 79 72 53 105 122 129 135 139 136 129 117
16 19 9 358 358 358 1 3 0 357 349 353 353 351 347 344 343 339 338 343 344 340 335 331 332 332 330 333 331 310 282 270 257 235 227 228 204 177 164 174 160 167 156 165 163 149 134 121 129 142 148 139 127 125 133 139 149 162 183 163 154 143 137 131 124 123 113 96 91 86 68 61 76 74 71 66 57 44 91 114 133 136 134 122 132
6 3 354 353 354 355 350 349 348 345 345 344 347 342 338 336 332 329 331 338 337 334 333 332 329 329 329 333 338 334 315 293 279 252 198 218 214 177 149 145 138 136 139 131 116 103 96 91 72 73 100 89 103 129 140 152 151 163 180 175 155 149 142 142 135 130 128 124 110 92 90 70 79 77 74 69 63 52 47 75 64 79 61 78 106
354 339 346 347 340 340 340 342 342 340 338 339 336 332 323 325 321 317 324 331 331 332 330 329 328 326 326 327 331 335 323 308 296 271 198 203 224 247 151 148 143 146 138 125 120 106 104 99 80 80 103 115 97 106 138 151 156 161 166 181 165 142 136 138 138 136 131 123 116 113 107 92 90 88 86 84 77 68 58 78 71 83 90 93 94
348 347 350 346 338 338 340 337 335 335 335 331 330 322 320 316 310 311 318 323 323 321 323 324 323 321 321 321 322 329 330 328 321 288 261 202 187 194 192 152 144 144 134 134 131 132 126 122 122 116 113 109 118 115 119 141 148 149 147 132 118 129 142 153 151 146 131 120 114 109 102 95 89 86 82 82 86 94 85 86 100 94 91 116 186
341 339 340 338 331 331 328 330 329 330 328 325 323 316 312 308 302 309 311 312 312 313 314 312 311 311 312 314 316 318 323 320 332 337 299 282 193 186 189 180 169 156 149 140 153 153 136 134 137 137 134 134 123 123 88 101 130 125 122 123 127 132 156 140 130 128 123 121 127 120 112 107 97 93 87 79 69 68 91 102 100 105 120 142 31
336 334 336 333 329 325 322 321 326 326 326 321 314 305 301 294 298 308 308 308 308 306 303 299 298 299 302 304 307 306 310 319 316 316 318 291 268 198 182 183 174 172 160 152 159 159 155 150 144 146 149 142 139 115 115 95 109 121 125 129 127 125 119 114 108 109 114 103 92 104 113 110 106 104 106 102 90 84 89 94 98 117 213 30 10
332 333 339 332 326 322 321 318 320 322 317 314 307 298 290 290 295 295 296 298 298 296 291 287 288 288 289 293 295 298 297 302 311 299 269 256 265 261 217 175 192 183 177 166 161 162 154 149 149 155 154 153 139 133 126 127 131 125 120 117 119 117 106 86 88 92 95 105 111 110 112 118 122 130 128 109 105 101 97 100 105 224 31 25 351
337 335 332 329 328 322 321 320 316 319 317 313 309 301 294 295 293 291 290 287 285 284 282 278 274 275 276 276 279 283 293 303 287 276 277 252 230 240 305 269 195 183 186 179 166 166 164 157 150 149 147 147 152 153 153 156 157 144 134 128 117 109 109 108 107 119 119 116 119 120 103 90 92 83 88 102 116 149 148 145 108 63 43 17 4
330 328 328 323 321 318 318 318 317 318 317 314 309 303 301 299 295 292 288 285 279 274 274 274 274 271 268 266 267 268 273 275 276 261 266 268 244 232 222 234 255 232 155 251 222 176 162 147 137 141 146 146 156 167 170 166 162 148 145 144 136 138 142 141 134 135 130 122 118 117 125 129 133 133 135 129 113 96 97 92 66 63 54 63 25
327 326 323 319 317 316 314 313 313 316 314 313 310 304 303 303 299 293 289 285 281 278 273 270 270 268 263 258 258 261 260 263 265 264 198 233 237 225 210 233 171 54 323 244 187 205 166 164 147 147 143 159 160 184 206 183 165 160 151 145 146 147 144 141 129 125 123 129 131 133 129 138 137 133 136 137 129 125 99 100 90 25 18 352 330
321 316 313 311 310 308 308 307 307 310 308 307 305 304 303 301 299 297 291 284 282 281 277 271 264 258 258 258 255 253 250 247 248 257 243 158 114 221 279 239 215 186 184 171 217 216 213 185 151 177 175 172 198 209 145 149 150 147 143 136 131 129 124 123 131 133 131 133 139 140 147 147 153 159 157 145 130 108 91 81 81 63 327 349 337
319 316 316 315 313 311 310 306 306 308 307 306 302 300 297 295 296 292 288 283 279 276 274 272 267 259 255 260 262 262 257 248 244 242 233 219 169 135 115 102 283 225 224 206 203 240 317 194 187 171 224 318 56 125 147 154 144 139 130 125 125 123 124 129 133 126 131 139 147 151 146 150 148 152 131 103 92 93 68 43 31 355 339 324 312